Temperature
5 5 5 5 5 5 5 5 5 4 5 5 5 5 5 5 6 5 5 6 6 6 6 6 6 5 5 5 5 5 5 5 5 5 4 4 4 4
4 4 4 5 5 5 5 5 5 4 4 4 5 5 5 5 5 5 5 5 5 5 5 5 5 5 5 5 5 5 5 4 4 4 4 4 4 4
4 4 4 4 4 4 4 4 4 4 4 4 4 4 4 4 4 4 4 4 4 5 5 5 4 4 4 4 4 4 4 4 4 4 3 3 3 3
3 3 4 4 4 4 4 4 4 4 3 4 4 4 4 4 4 4 4 4 4 4 4 4 4 4 4 4 4 4 3 3 3 3 3 3 3 3
3 3 3 3 3 3 3 3 3 3 3 3 3 3 3 3 3 3 3 3 3 3 3 3 3 3 3 3 3 3 3 3 3 3 2 2 2 2
2 2 2 3 3 3 3 3 3 3 3 3 3 2 2 3 2 3 2 2 3 3 3 3 3 3 3 2 2 2 2 2 2 2 2 2 2 2
2 2 2 2 2 3 3 2 2 2 2 2 2 2 2 2 2 2 2 2 2 2 2 2 2 2 2 2 2 2 2 2 2 2 2 2 1 1
1 1 2 2 2 2 2 2 2 2 2 2 2 2 2 2 2 2 1 1 1 1 1 1 1 1 1 1 2 2 2 1 1 1 1 1 1 1
1 1 1 1 1 2 2 1 1 1 1 1 1 1 1 1 1 1 1 1 1 1 1 1 1 1 1 1 1 1 1 1 1 1 1 1 0 0
-0 0 0 1 1 1 1 1 1 1 1 1 1 1 1 1 1 1 1 0 0 0 0 0 0 0 0 0 0 1 1 0 0 0 0 0 0 -0
-1 -0 -0 -0 0 0 0 0 0 0 0 0 1 1 1 1 0 0 -0 -0 -0 -0 -0 -1 -0 -0 -0 -0 -0 -0 -0 -0 -0 -0 -0 -0 -1 -1
-1 -1 -1 -1 -1 -0 -0 -0 -0 -0 -0 -0 -0 -0 -0 -0 -0 -0 -0 -0 -1 -1 -1 -1 -1 -1 -1 -1 -1 -1 -1 -1 -1 -1 -1 -1 -1 -1
-2 -2 -2 -1 -1 -1 -1 -1 -1 -1 -1 -1 -1 -1 -1 -1 -1 -1 -1 -1 -1 -1 -1 -1 -1 -2 -2 -2 -2 -2 -2 -2 -2 -2 -2 -2 -2 -2
-3 -3 -2 -2 -2 -2 -2 -2 -1 -1 -1 -1 -1 -1 -1 -1 -1 -1 -1 -1 -1 -1 -1 -1 -2 -2 -2 -2 -2 -2 -2 -2 -2 -2 -2 -2 -2 -2
-4 -3 -3 -3 -3 -2 -2 -2 -2 -2 -2 -2 -2 -2 -2 -2 -2 -2 -2 -2 -2 -2 -2 -2 -2 -2 -3 -3 -3 -2 -3 -3 -3 -3 -3 -3 -3 -3
-4 -4 -4 -3 -3 -3 -3 -3 -3 -3 -2 -2 -2 -2 -2 -2 -2 -2 -2 -2 -3 -3 -2 -3 -3 -3 -3 -3 -3 -3 -3 -3 -3 -3 -3 -3 -3 -3
-5 -5 -4 -4 -4 -4 -4 -3 -3 -3 -3 -3 -3 -3 -3 -3 -3 -3 -3 -3 -3 -3 -3 -3 -4 -4 -4 -4 -4 -4 -4 -4 -4 -4 -4 -4 -4 -4
-5 -5 -5 -5 -5 -4 -4 -4 -4 -4 -4 -4 -4 -4 -4 -4 -4 -4 -4 -4 -4 -4 -4 -4 -4 -4 -4 -4 -4 -4 -4 -4 -4 -4 -4 -4 -4 -4
-6 -5 -5 -5 -5 -5 -4 -4 -4 -4 -4 -4 -4 -4 -4 -4 -4 -4 -4 -4 -4 -4 -4 -4 -4 -5 -5 -5 -5 -5 -5 -5 -5 -5 -5 -5 -5 -4
-6 -6 -6 -6 -5 -5 -5 -5 -5 -5 -5 -5 -5 -5 -5 -5 -5 -5 -5 -5 -5 -5 -5 -5 -5 -5 -5 -5 -5 -5 -5 -5 -5 -5 -5 -5 -5 -5
-7 -6 -6 -6 -6 -6 -6 -5 -5 -5 -5 -5 -5 -5 -5 -5 -5 -5 -5 -5 -5 -5 -5 -5 -5 -5 -6 -6 -6 -5 -5 -5 -5 -6 -5 -6 -5 -5
-7 -7 -7 -6 -6 -6 -6 -6 -6 -6 -6 -6 -5 -5 -6 -6 -6 -6 -6 -6 -6 -6 -6 -6 -6 -6 -6 -6 -6 -6 -6 -6 -6 -6 -6 -6 -6 -6
-7 -7 -7 -7 -7 -7 -6 -6 -6 -6 -6 -6 -6 -6 -6 -6 -6 -6 -6 -6 -6 -6 -6 -6 -6 -6 -7 -7 -7 -7 -6 -6 -6 -6 -6 -6 -6 -6
Wind_Speed
7 7 6 5 5 5 5 6 5 4 5 4 3 3 3 3 3 5 5 4 4 4 3 3 2 3 3 3 3 4 4 5 5 5 5 6 7 7
6 7 7 6 5 5 5 5 6 5 4 3 3 3 3 3 3 4 4 4 4 4 4 3 3 3 3 4 4 3 4 4 5 5 6 6 6 6
7 8 9 7 6 6 5 5 5 5 4 3 2 3 4 4 3 4 4 4 4 5 5 4 4 3 4 4 4 4 4 5 6 6 7 7 7 7
8 8 9 7 8 7 6 7 6 5 5 5 3 3 4 5 4 3 3 3 4 5 5 5 5 5 5 5 5 5 5 6 6 7 7 7 7 8
8 9 9 9 10 7 8 7 6 5 5 5 4 3 3 4 4 3 3 3 3 4 5 5 6 6 6 6 6 6 6 6 6 7 7 8 8 8
9 9 9 9 10 9 8 8 6 6 6 5 5 4 3 3 4 4 3 3 2 3 4 5 5 6 7 6 6 7 7 7 7 7 8 8 8 8
8 9 8 9 9 8 7 8 7 7 6 6 6 4 5 4 5 4 4 3 3 3 3 3 4 4 5 6 7 8 8 8 8 8 8 8 8 9
8 7 7 8 10 10 9 9 9 9 8 7 6 7 7 6 5 5 5 4 4 3 4 3 3 4 4 5 6 7 8 8 9 9 9 9 9 9
7 6 5 6 8 8 8 9 9 10 10 9 9 9 8 8 6 6 6 6 5 4 4 4 4 5 4 5 6 7 8 8 9 9 9 10 10 10
6 6 6 6 7 7 6 7 7 8 8 8 8 9 7 7 7 7 6 5 3 3 4 4 4 4 3 5 6 7 8 9 10 10 10 10 10 10
5 5 6 6 7 8 7 7 6 5 5 6 7 7 7 7 7 5 5 5 4 4 4 4 3 3 4 4 6 7 8 9 10 9 9 8 9 9
3 4 6 7 7 7 8 8 8 6 5 4 4 5 5 7 8 7 6 6 4 3 4 4 3 2 3 3 4 5 7 8 8 9 9 9 8 7
4 4 4 6 7 7 7 7 8 6 5 5 4 4 4 4 5 5 5 5 6 4 4 4 3 3 3 3 4 4 5 5 6 7 8 9 9 8
4 4 4 6 7 7 6 6 7 6 5 5 5 5 4 4 3 3 3 2 3 4 6 5 4 4 4 4 4 4 4 5 5 5 6 7 9 10
4 5 5 6 6 5 6 7 6 5 5 5 5 5 4 4 3 2 1 1 1 2 4 5 4 4 5 5 4 4 4 4 5 5 5 5 6 6
3 3 4 4 4 4 5 5 5 5 5 5 4 4 3 3 4 3 3 3 2 2 2 4 5 5 5 5 5 5 5 4 4 5 5 6 7 7
2 2 2 3 3 3 3 3 4 4 4 4 4 4 4 4 4 3 3 3 4 4 3 2 2 3 4 5 5 5 5 5 5 5 5 6 6 7
3 3 3 3 4 4 3 3 3 4 4 4 4 5 5 4 4 3 3 4 4 4 4 3 3 2 3 3 5 6 5 5 5 5 5 6 7 7
3 3 4 4 3 3 3 3 3 3 3 4 5 5 4 4 4 4 4 4 4 4 4 4 4 5 5 6 4 6 5 4 4 5 5 6 7 7
3 3 3 3 3 3 3 3 3 3 3 4 4 4 5 5 5 5 5 5 5 4 4 4 5 6 6 6 4 4 6 6 5 6 6 5 6 8
3 3 3 3 3 3 3 3 3 3 3 4 4 5 5 5 5 5 5 6 6 5 6 6 5 5 3 3 4 5 4 6 7 6 5 5 5 5
3 3 3 3 3 3 3 3 3 3 4 4 4 5 5 5 6 6 6 6 6 6 6 4 3 3 4 5 6 6 5 4 5 7 8 8 5 5
3 3 3 3 3 3 3 3 4 4 4 4 4 4 4 5 5 6 6 6 5 6 5 5 4 4 5 5 6 5 6 5 4 4 5 7 10 11
Wind_Direction
227 224 220 215 212 214 209 204 206 217 225 211 203 206 207 203 189 189 193 184 190 194 196 197 213 225 223 220 222 224 231 227 228 229 239 244 250 259
227 226 223 215 211 210 210 213 217 223 229 216 214 207 202 203 196 198 201 197 201 197 198 206 215 229 233 224 225 221 217 220 227 231 235 242 251 262
229 226 226 217 212 210 210 211 214 215 223 245 236 207 205 203 197 203 209 208 202 199 202 205 215 223 227 226 225 222 224 231 236 239 239 245 250 257
233 230 228 217 215 212 210 212 212 212 215 223 231 216 217 203 200 203 214 209 207 201 207 214 222 228 230 225 225 230 234 235 240 242 243 248 254 259
237 235 232 220 216 214 212 214 213 210 211 210 221 219 220 202 199 209 214 214 212 204 212 221 225 228 232 229 228 232 230 230 239 242 245 249 256 263
239 237 235 227 220 215 212 213 210 206 203 204 209 213 214 208 202 206 215 217 224 220 218 222 223 228 231 229 231 232 232 235 240 243 245 249 257 264
238 236 235 232 225 217 213 210 204 207 205 205 207 212 212 203 208 210 213 217 243 237 220 221 220 227 228 224 226 229 233 236 242 247 250 253 258 264
236 236 233 228 220 218 217 216 213 210 208 208 215 214 219 218 213 204 203 216 240 216 222 235 233 238 234 228 228 228 230 236 241 247 250 253 257 262
236 234 234 230 217 215 212 213 219 223 221 218 218 219 219 214 207 209 211 219 237 221 226 241 237 242 240 236 234 238 239 242 244 245 251 253 256 260
240 236 234 233 220 211 210 215 223 227 226 225 224 224 220 210 207 212 217 224 235 234 229 242 241 246 249 240 233 239 244 244 244 248 251 254 258 262
247 242 234 234 222 211 207 212 220 229 223 225 228 221 213 209 201 194 201 208 232 237 231 233 236 252 256 251 235 236 243 246 244 246 250 256 260 263
259 250 239 233 222 216 213 210 216 219 211 205 204 202 201 198 200 208 208 211 222 229 212 217 224 233 245 243 238 239 242 246 249 249 251 256 259 260
253 251 244 232 228 228 232 222 214 211 210 205 204 203 200 202 207 214 219 217 218 230 203 203 220 227 237 251 254 247 243 248 249 252 253 255 255 255
251 251 244 235 235 232 232 214 199 203 206 200 202 206 206 207 210 210 218 240 248 238 209 205 224 225 232 249 255 248 248 250 254 260 261 259 257 257
254 252 249 238 233 228 216 200 198 205 202 202 207 214 213 205 194 187 192 201 262 247 222 222 226 223 230 243 248 251 254 255 251 256 260 261 261 260
250 240 232 224 230 227 210 204 212 210 207 206 206 206 201 200 205 206 213 212 231 250 249 230 230 228 235 245 244 247 247 242 244 254 261 265 261 255
245 247 232 216 220 219 216 210 206 201 203 197 193 196 200 205 210 211 216 218 230 235 234 237 235 243 251 244 242 243 245 253 253 253 258 262 260 256
231 223 224 223 222 219 219 216 212 208 204 197 197 198 202 205 208 210 214 218 222 229 229 222 216 239 252 255 240 241 242 250 258 254 254 257 262 261
234 226 227 225 225 223 221 220 225 218 208 200 200 200 201 206 210 213 214 219 226 232 233 221 217 221 234 249 239 225 239 254 258 257 255 256 262 265
236 229 229 226 225 225 225 224 218 211 210 205 203 203 205 207 212 217 218 220 224 229 234 229 225 227 233 242 251 254 238 241 247 253 262 269 273 276
247 238 236 234 232 231 228 225 220 217 216 214 212 211 211 211 215 219 221 218 223 228 231 238 236 232 243 238 248 257 255 244 245 251 254 262 268 267
262 250 242 239 236 233 228 224 224 221 218 221 218 217 218 217 215 218 221 222 226 228 235 242 231 223 230 235 246 256 267 271 267 258 249 245 248 248
268 263 253 243 240 237 234 230 230 230 227 226 227 224 222 221 220 220 222 225 226 225 228 233 235 234 236 238 246 254 259 265 270 273 269 263 260 264
Height
1499 1500 1502 1503 1505 1507 1509 1511 1513 1514 1515 1515 1516 1517 1519 1520 1521 1522 1523 1524 1525 1526 1526 1527 1528 1528 1528 1529 1529 1529 1529 1529 1529 1530 1530 1531 1531 1532
1495 1496 1497 1499 1500 1502 1504 1506 1508 1510 1510 1511 1512 1513 1515 1516 1518 1518 1519 1520 1521 1522 1522 1523 1524 1524 1525 1525 1525 1525 1525 1525 1526 1526 1527 1527 1527 1528
1489 1491 1492 1493 1495 1497 1499 1501 1503 1505 1505 1506 1508 1509 1511 1512 1513 1514 1515 1516 1517 1518 1518 1519 1520 1520 1521 1521 1521 1521 1521 1522 1522 1522 1523 1523 1523 1523
1483 1485 1486 1488 1490 1492 1494 1496 1498 1499 1501 1502 1503 1505 1506 1508 1509 1510 1511 1512 1512 1513 1514 1515 1515 1516 1516 1517 1517 1517 1517 1518 1518 1519 1519 1519 1519 1519
1477 1479 1481 1482 1484 1486 1488 1490 1492 1494 1496 1497 1498 1500 1501 1503 1504 1506 1506 1507 1508 1509 1509 1510 1511 1511 1512 1512 1512 1513 1513 1513 1514 1514 1515 1515 1515 1515
1472 1473 1475 1476 1478 1480 1482 1484 1487 1488 1490 1492 1493 1495 1496 1498 1499 1501 1502 1503 1504 1504 1505 1506 1506 1507 1507 1508 1508 1508 1509 1509 1509 1510 1510 1510 1510 1510
1466 1467 1469 1471 1472 1475 1476 1479 1481 1483 1484 1486 1487 1489 1491 1492 1494 1495 1497 1498 1499 1500 1500 1501 1502 1502 1502 1503 1503 1504 1504 1504 1504 1505 1505 1505 1505 1505
1460 1461 1463 1465 1466 1469 1471 1473 1475 1477 1478 1480 1482 1483 1485 1487 1489 1491 1492 1493 1494 1496 1496 1496 1497 1497 1498 1498 1498 1499 1499 1499 1500 1500 1500 1500 1500 1500
1455 1456 1457 1459 1461 1463 1465 1467 1469 1471 1473 1475 1476 1478 1480 1481 1483 1485 1487 1488 1489 1490 1491 1491 1492 1492 1493 1493 1494 1494 1494 1495 1495 1495 1495 1495 1495 1495
1449 1451 1452 1454 1456 1457 1459 1461 1463 1465 1467 1470 1471 1473 1475 1476 1478 1480 1481 1483 1484 1485 1486 1486 1487 1488 1488 1488 1489 1489 1489 1490 1490 1490 1490 1490 1490 1489
1444 1446 1447 1449 1450 1452 1454 1455 1457 1460 1462 1464 1466 1467 1469 1471 1473 1474 1476 1477 1478 1479 1481 1481 1482 1482 1483 1483 1483 1484 1484 1484 1484 1485 1484 1484 1484 1484
1439 1441 1442 1444 1445 1447 1448 1450 1452 1454 1457 1459 1460 1462 1464 1465 1467 1469 1471 1472 1472 1474 1475 1477 1477 1478 1478 1478 1478 1479 1479 1479 1479 1479 1479 1479 1479 1478
1435 1436 1437 1439 1440 1442 1443 1445 1446 1449 1451 1453 1455 1456 1458 1460 1462 1464 1465 1467 1468 1468 1470 1471 1472 1473 1473 1472 1473 1474 1474 1474 1474 1474 1473 1473 1473 1473
1430 1431 1432 1433 1435 1436 1438 1440 1442 1444 1446 1447 1449 1451 1453 1455 1457 1459 1460 1461 1463 1464 1465 1466 1467 1467 1468 1467 1467 1468 1468 1469 1469 1468 1468 1468 1468 1467
1426 1427 1428 1429 1430 1431 1433 1435 1436 1438 1440 1442 1443 1445 1448 1450 1452 1454 1455 1456 1457 1458 1459 1461 1462 1462 1463 1462 1462 1462 1462 1462 1463 1463 1463 1462 1462 1462
1422 1423 1423 1424 1425 1427 1428 1430 1431 1433 1435 1436 1438 1441 1443 1445 1446 1448 1450 1451 1452 1452 1454 1455 1456 1457 1457 1458 1458 1457 1457 1457 1457 1458 1457 1457 1457 1456
1419 1419 1419 1420 1421 1422 1423 1425 1427 1429 1430 1432 1434 1436 1438 1440 1441 1443 1444 1445 1446 1447 1448 1450 1451 1452 1452 1453 1452 1452 1452 1452 1452 1452 1452 1451 1451 1451
1415 1415 1416 1416 1417 1418 1419 1421 1423 1424 1426 1428 1430 1431 1433 1435 1436 1438 1439 1441 1441 1442 1443 1444 1445 1446 1447 1447 1447 1446 1446 1446 1447 1447 1446 1445 1444 1445
1412 1412 1412 1413 1414 1415 1416 1417 1419 1420 1422 1423 1425 1427 1428 1430 1431 1433 1434 1435 1436 1437 1438 1439 1440 1441 1441 1440 1440 1442 1442 1441 1441 1441 1441 1440 1438 1438
1408 1409 1409 1410 1411 1412 1413 1414 1415 1416 1418 1419 1421 1422 1424 1425 1427 1428 1429 1430 1431 1432 1433 1434 1435 1435 1435 1435 1435 1435 1437 1436 1436 1435 1435 1434 1433 1433
1405 1406 1406 1407 1408 1408 1409 1410 1411 1412 1413 1415 1416 1418 1419 1421 1422 1423 1424 1425 1426 1427 1427 1428 1429 1431 1431 1432 1431 1429 1430 1431 1431 1430 1429 1429 1427 1426
1402 1403 1403 1404 1405 1405 1406 1407 1408 1409 1410 1411 1412 1413 1415 1416 1417 1418 1419 1420 1421 1422 1422 1423 1424 1425 1426 1425 1424 1424 1424 1425 1425 1425 1425 1424 1423 1421
1399 1400 1400 1401 1401 1402 1402 1403 1404 1405 1406 1407 1408 1409 1410 1411 1412 1413 1414 1415 1416 1416 1417 1418 1419 1419 1419 1420 1420 1419 1419 1419 1419 1419 1419 1419 1418 1418